Location: Fort Worth, Tx
(32.7431°N, 97.3695°W)
Time: 23:04:05
(UTC-04:00)

AO-73 - Visible Passes

Search period start: 28 March 2023 00:00
Search period end: 07 April 2023 00:00
Orbit: 573 x 649 km, 97.7° (Epoch: 28 March)

Date Brightness Start Highest point End Pass type
(mag) Time Alt. Az. Time Alt. Az. Time Alt. Az.
28 Mar ? 06:20:31 10° N 06:22:19 24° NNW 06:22:19 24° NNW visible
29 Mar ? 06:35:16 10° N 06:37:07 22° NNW 06:37:07 22° NNW visible
30 Mar ? 05:14:19 10° NE 05:14:56 13° NE 05:14:56 13° NE visible
30 Mar ? 06:50:12 10° NNW 06:51:55 18° NW 06:51:55 18° NW visible
31 Mar ? 05:28:21 10° NNE 05:29:43 18° NE 05:29:43 18° NE visible
31 Mar ? 07:05:26 10° NW 07:06:41 14° NW 07:06:41 14° NW visible
01 Apr ? 05:42:35 10° NNE 05:44:28 25° NE 05:44:28 25° NE visible
02 Apr ? 05:56:57 10° NNE 05:59:14 32° NNE 05:59:14 32° NNE visible
03 Apr ? 06:11:26 10° N 06:13:58 36° N 06:13:58 36° N visible
04 Apr ? 06:26:02 10° N 06:28:41 32° NW 06:28:41 32° NW visible
05 Apr ? 05:05:36 10° NE 05:06:25 13° ENE 05:06:25 13° ENE visible
05 Apr ? 06:40:46 10° NNW 06:43:25 25° NW 06:43:25 25° NW visible
06 Apr ? 05:19:22 10° NE 05:21:07 20° ENE 05:21:07 20° ENE visible
06 Apr ? 06:55:42 10° NNW 06:58:07 18° WNW 06:58:07 18° WNW visible
